Flag for Poland Weather past 2 weeks in Gdańsk, Poland

Now
64 °F

Sunny.


Feels Like: 64 °F
Forecast: 54 / 64 °F
Wind: 9 mph from East

Location: Gdansk-Rebiechowo

Current Time: Sep 3, 2015 at 5:52:14 PM

Latest Report: Sep 3, 2015 at 5:30 PM


Visibility: 10 mi

Pressure: 29.95 "Hg

Humidity: 60%

Dew point: 50 °F

Location of GdańskLocation

Historic Weather in Gdańsk — Graph

°F

Gdańsk temperature yesterday

Maximum temperature yesterday: 68 °F (at 5:00 PM)
Minimum temperature yesterday: 52 °F (at 11:00 PM)
Average temperature yesterday: 61 °F

Past Weeks' High & Low Weather Summary

 TemperatureHumidityPressure
High90 °F (Sep 1, 2:00 PM)100% (Aug 21, 4:00 AM)30.39 "Hg (Aug 21, 4:00 AM)
Low46 °F (Aug 20, 6:00 AM)26% (Aug 27, 3:30 PM)29.65 "Hg (Sep 1, 10:00 AM)
Average65 °F66%30.06 "Hg
* Reported Aug 19 5:00 PM — Sep 3 5:00 PM, Gdańsk, Weather by CustomWeather, © 2015

Note: Actual official high and low records may vary slightly from our data, if they occured in-between our weather recording intervals... More about our weather records

Advertising

Gdańsk weather history for previous 24 hours

 ConditionsComfort  
Time TempWeatherWind HumidityBarometerVisibility
5:00 PM
Thu, Sep 3
66 °FPassing clouds.6 mph56%29.95 "HgN/A
4:30 PM66 °FPassing clouds.6 mph52%29.95 "HgN/A
4:00 PM68 °FPassing clouds.7 mph49%29.95 "HgN/A
3:30 PM66 °FPassing clouds.7 mph52%29.95 "HgN/A
3:00 PM68 °FPassing clouds.6 mph46%29.95 "HgN/A
2:30 PM66 °FScattered clouds.9 mph52%29.98 "HgN/A
2:00 PM66 °FScattered clouds.3 mph52%29.98 "HgN/A
1:30 PM66 °FScattered clouds.7 mph52%29.98 "HgN/A
1:00 PM64 °FPassing clouds.3 mph60%30.01 "HgN/A
12:30 PM64 °FScattered clouds.3 mph52%30.01 "HgN/A
12:00 PM64 °FScattered clouds.5 mph52%30.01 "HgN/A
11:30 AM64 °FScattered clouds.3 mph56%30.01 "HgN/A
11:00 AM64 °FScattered clouds.5 mph56%30.01 "HgN/A
10:30 AM64 °FScattered clouds.2 mph56%30.01 "HgN/A
10:00 AM64 °FPassing clouds.3 mph56%30.01 "HgN/A
9:30 AM63 °FSunny.2 mph68%30.01 "Hg10 mi
9:00 AM57 °FSunny.2 mph88%30.01 "Hg10 mi
8:30 AM54 °FSunny.1 mph88%30.01 "Hg10 mi
8:00 AM52 °FSunny.2 mph94%30.01 "Hg10 mi
7:30 AM52 °FSunny.2 mph88%30.01 "Hg10 mi
7:00 AM52 °FSunny.No wind88%30.01 "Hg10 mi
6:30 AM50 °FClear.1 mph94%29.98 "Hg10 mi
6:00 AM50 °FClear.3 mph94%29.98 "Hg10 mi
5:30 AM50 °FClear.2 mph94%29.98 "Hg10 mi
5:00 AM50 °FClear.No wind94%29.98 "Hg10 mi
4:30 AM50 °FClear.1 mph94%29.98 "Hg10 mi
4:00 AM50 °FClear.2 mph94%29.98 "Hg10 mi
3:30 AM50 °FClear.1 mph94%29.98 "Hg10 mi
3:00 AM50 °FClear.2 mph94%29.98 "Hg10 mi
2:30 AM50 °FPassing clouds.2 mph94%29.98 "HgN/A
2:00 AM50 °FPassing clouds.1 mph94%29.98 "HgN/A
1:30 AM50 °FPassing clouds.2 mph94%29.98 "HgN/A
1:00 AM50 °FClear.No wind94%29.98 "Hg10 mi
11:30 PM
Wed, Sep 2
52 °FPassing clouds.No wind88%29.98 "HgN/A
11:00 PM52 °FClear.No wind88%29.98 "Hg10 mi
10:30 PM54 °FPassing clouds.No wind82%29.98 "HgN/A
10:00 PM54 °FClear.2 mph82%29.98 "Hg10 mi
9:30 PM55 °FClear.1 mph77%29.98 "Hg10 mi
9:00 PM55 °FClear.No wind77%29.98 "Hg10 mi
8:30 PM57 °FSunny.1 mph72%29.98 "Hg10 mi
8:00 PM59 °FSunny.5 mph63%29.95 "Hg10 mi
7:30 PM61 °FSunny.7 mph59%29.95 "Hg10 mi
7:00 PM63 °FPassing clouds.10 mph52%29.95 "HgN/A
6:30 PM64 °FPassing clouds.13 mph49%29.95 "HgN/A
5:30 PM66 °FPassing clouds.14 mph49%29.92 "HgN/A
5:00 PM68 °FPassing clouds.12 mph46%29.95 "HgN/A
Weather by CustomWeather, © 2015

See weather overviewHow to use our weather pages